[[{"header":{"parameterUnit":"m.s-1","parameterCategory":1,"la1":30.2991,"la2":30.254,"lo1":-89.0895,"lo2":-89.0444,"dy":0.0017,"dx":0.0017,"nx":28,"ny":28,"refTime":"2025-01-17T03:00:00:Z","depth":0,"parameterNumber":2,"parameterNumberName":"U-component_of_WINDS"},"data":[0,0,0,0,0,0,0,0,0,0,0,0,0,0,0,0,0,0,0,0,0,0,0,0,0,0,0,0,0,0,0,0,0,0,0,0,0,0,0,0,0,0,0,0,0,0,0,0,0,0,0,0,0,0,0,0,0,0,4.7143,4.7142,0,4.7114,4.7114,4.7114,4.7052,4.7051,4.7049,4.7048,4.7018,4.7018,4.7019,0,0,0,0,0,0,0,0,0,0,0,0,0,4.7146,4.7147,4.7143,4.7142,4.7142,4.7114,4.7114,4.7114,4.7052,4.705,4.7049,4.7047,4.7018,4.7018,4.7019,0,0,0,0,0,0,0,0,0,0,0,0,0,4.7134,4.7147,4.7143,4.7108,4.7104,4.7115,4.7114,4.7114,4.7052,4.705,4.7049,4.7047,4.7018,4.7018,4.7019,4.706,0,0,4.7021,4.7021,0,0,0,0,0,0,0,0,4.7135,4.7134,4.7113,4.711,4.7106,4.7085,4.7104,4.7096,4.7053,4.7072,4.7048,4.7046,4.7042,4.704,4.7039,4.7059,4.7057,4.7021,4.7021,4.7021,4.7021,0,0,0,0,0,0,0,4.7136,4.7135,4.7131,4.7113,4.7109,4.7095,4.7091,4.7102,4.7068,4.707,4.7066,4.7063,4.7039,4.7039,4.7038,4.7057,4.7021,4.7021,4.7021,4.7022,4.7117,4.7119,0,0,0,0,0,0,4.7142,4.7136,4.7132,4.713,4.7116,4.7096,4.7092,4.7094,4.7067,4.7062,4.7065,4.7061,4.7039,4.7037,4.7036,4.7088,4.7021,4.7022,4.7022,4.7115,4.7118,4.712,0,0,0,0,0,0,4.7142,4.7142,4.7133,4.7132,4.713,4.7098,4.7101,4.7094,4.7093,4.7063,4.7057,4.707,4.7037,4.7036,4.7057,4.7086,4.7022,4.7022,4.7113,4.7116,4.7119,4.7189,0,0,0,0,0,0,4.7142,4.7142,4.7156,4.7133,4.713,4.7153,4.7102,4.7095,4.7094,4.7088,4.7067,4.7061,4.7035,4.7056,4.7057,4.7086,4.7023,4.711,4.7114,4.7118,4.7184,4.7195,4.7204,0,0,0,0,0,4.7143,4.7175,4.7157,4.7157,4.7147,4.7155,4.7153,4.7123,4.7097,4.7112,4.7094,4.7062,4.7083,4.7059,4.7059,4.7089,4.7108,4.7113,4.7118,4.718,4.7193,4.7203,0,0,0,0,0,0,4.72,4.7171,4.7151,4.7177,4.7169,4.7144,4.7162,4.7136,4.7135,4.7129,4.7092,4.7087,4.7115,4.7103,4.7077,4.7131,4.7091,4.7096,4.7138,4.715,4.7159,4.7162,4.7023,0,0,0,0,0,4.7217,4.7225,4.7199,4.7224,4.7222,4.7193,4.7195,4.7173,4.7163,4.7159,4.7142,4.7134,4.714,4.7143,4.7146,4.7182,4.718,4.7204,4.7213,4.7221,4.7227,4.7252,4.7264,4.7137,4.7136,4.7136,0,0,4.7249,4.7234,4.7241,4.7236,4.7227,4.7239,4.719,4.7202,4.7211,4.716,4.7181,4.7169,4.7158,4.7189,4.7201,4.718,4.7262,4.7228,4.7234,4.7235,4.7258,4.7271,4.7281,4.714,4.7139,4.7139,0,0,4.7315,4.7303,4.7326,4.732,4.7309,4.7291,4.7297,4.7277,4.7268,4.7288,4.7253,4.7263,4.7271,4.7267,4.7266,4.7339,4.7311,4.7341,4.7391,4.7416,4.7427,4.7435,4.7466,4.7477,4.7346,4.7346,4.7346,0,4.7357,4.7372,4.7341,4.7358,4.7359,4.7316,4.7342,4.7337,4.7327,4.733,4.7306,4.7321,4.7309,4.7342,4.7361,4.7359,4.7368,4.7343,4.7428,4.7436,4.7444,4.7473,4.7484,4.735,4.735,4.7349,4.7349,0,4.7427,4.7439,4.7459,4.7454,4.7457,4.7478,4.7452,4.7459,4.7439,4.7424,4.7449,4.7435,4.7438,4.7443,4.7421,4.7475,4.7463,4.7434,4.7393,4.7461,4.7488,4.7498,4.7356,4.7354,4.7353,4.7352,0,0,4.7525,4.7508,4.7516,4.7516,4.7504,4.7513,4.7535,4.7539,4.7548,4.7544,4.7564,4.7575,4.7551,4.755,4.7528,4.755,4.7616,4.7519,4.7518,4.7542,4.7681,4.7705,4.7718,4.7597,4.7599,4.7601,4.7683,0,4.7591,4.7626,4.7602,4.7643,4.7657,4.762,4.7639,4.7635,4.7624,4.7635,4.7621,4.7633,4.7597,4.7597,4.7617,4.7604,4.7644,4.7597,4.7618,4.762,4.7625,4.7731,4.7755,4.7833,4.7693,4.7695,4.7696,0,4.7671,4.7675,4.7718,4.771,4.7715,4.7732,4.7738,4.7748,4.7745,4.7736,4.7739,4.7714,4.7737,4.7696,4.7731,4.77,4.7708,4.7703,4.7706,4.7708,4.7663,4.774,4.7856,4.787,4.7711,4.771,4.7709,0,4.7745,4.776,4.779,4.779,4.778,4.7795,4.7791,4.7786,4.7793,4.7798,4.7803,4.781,4.7815,4.7823,4.7802,4.7773,4.7842,4.7797,4.7837,4.7839,4.7854,4.7854,4.7977,4.7854,4.7854,4.7854,4.7854,0,4.7822,4.7851,4.7824,4.7842,4.7875,4.7849,4.7883,4.7875,4.7873,4.7891,4.7858,4.7877,4.7847,4.7863,4.7847,4.7882,4.7882,4.7878,4.7874,4.7883,4.7884,4.7889,4.7884,4.7857,4.7856,4.7856,4.7855,0,4.7909,4.7892,4.7923,4.7913,4.7911,4.7937,4.7929,4.7947,4.7936,4.796,4.7964,4.7946,4.7964,4.7944,4.7959,4.7949,4.7998,4.7983,4.7999,4.7997,4.804,4.8038,4.8172,4.8191,4.8053,4.8054,4.8056,0,4.7961,4.7983,4.7978,4.7989,4.7989,4.8005,4.8014,4.799,4.8,4.8003,4.8022,4.8038,4.8049,4.8081,4.807,4.8084,4.8072,4.8119,4.8074,4.8084,4.8078,4.8079,4.8084,4.8128,4.813,4.8131,4.8132,0,4.8057,4.8049,4.8062,4.8075,4.8086,4.8094,4.81,4.8111,4.8087,4.8101,4.812,4.813,4.8149,4.8167,4.8179,4.8177,4.8153,4.8147,4.8158,4.8168,4.8179,4.8179,4.8028,4.8144,4.8143,4.8142,4.8141,4.8141,4.8131,4.8152,4.8153,4.8171,4.8174,4.8182,4.8201,4.8194,4.821,4.8225,4.821,4.8236,4.8238,4.8252,4.8254,4.8275,4.8255,4.8269,4.8274,4.8279,4.8288,4.8174,4.8276,4.8276,4.8275,4.8275,4.8275,0,4.8229,4.8229,4.8246,4.8258,4.8274,4.8251,4.8258,4.8273,4.8296,4.8301,4.8315,4.8341,4.836,4.8353,4.8371,4.839,4.838,4.8395,4.8395,4.8397,4.8301,4.8292,4.8404,4.8404,4.8404,4.8404,4.8404,4.8404,4.8282,4.8318,4.8312,4.8351,4.8351,4.8377,4.8384,4.8393,4.8398,4.8429,4.8446,4.8442,4.8443,4.8462,4.848,4.8478,4.8488,4.8509,4.8503,4.8415,4.8402,4.839,4.8382,4.851,4.8511,4.8597,4.8598,4.8599]},{"header":{"parameterUnit":"m.s-1","parameterCategory":1,"la1":30.2991,"la2":30.254,"lo1":-89.0895,"lo2":-89.0444,"dy":0.0017,"dx":0.0017,"nx":28,"ny":28,"refTime":"2025-01-17T03:00:00:Z","depth":0,"parameterNumber":3,"parameterNumberName":"V-component_of_WINDS"},"data":[0,0,0,0,0,0,0,0,0,0,0,0,0,0,0,0,0,0,0,0,0,0,0,0,0,0,0,0,0,0,0,0,0,0,0,0,0,0,0,0,0,0,0,0,0,0,0,0,0,0,0,0,0,0,0,0,0,0,2.0788,2.0789,0,2.0908,2.091,2.0911,2.0942,2.0941,2.094,2.0939,2.1064,2.1067,2.1071,0,0,0,0,0,0,0,0,0,0,0,0,0,2.0585,2.0588,2.0788,2.0789,2.0791,2.0908,2.091,2.0912,2.0942,2.0941,2.094,2.0939,2.1062,2.1067,2.1072,0,0,0,0,0,0,0,0,0,0,0,0,0,2.0686,2.0589,2.0787,2.082,2.0824,2.0908,2.091,2.0912,2.0942,2.0941,2.094,2.0939,2.1061,2.1066,2.1072,2.1133,0,0,2.1091,2.1093,0,0,0,0,0,0,0,0,2.068,2.0693,2.0814,2.0818,2.0823,2.0909,2.0884,2.0986,2.0942,2.0897,2.0939,2.0938,2.1013,2.1023,2.1048,2.1138,2.1144,2.1091,2.1095,2.1098,2.1099,0,0,0,0,0,0,0,2.0673,2.0688,2.0836,2.0815,2.0821,2.0829,2.0842,2.0903,2.096,2.0901,2.0904,2.0917,2.1015,2.1042,2.1051,2.1146,2.1091,2.1097,2.11,2.1103,2.1293,2.1294,0,0,0,0,0,0,2.066,2.0682,2.0832,2.0839,2.0747,2.0833,2.0848,2.0882,2.096,2.097,2.0918,2.0918,2.1032,2.1044,2.1056,2.1133,2.1098,2.1103,2.1107,2.1292,2.1293,2.1295,0,0,0,0,0,0,2.0656,2.0673,2.0827,2.0761,2.0782,2.0838,2.0876,2.0885,2.0912,2.0973,2.0983,2.0935,2.1032,2.1047,2.1114,2.1138,2.1106,2.1111,2.129,2.1292,2.1294,2.1287,0,0,0,0,0,0,2.065,2.0671,2.0695,2.0762,2.0785,2.0883,2.0878,2.0889,2.0923,2.0924,2.0991,2.1001,2.1032,2.1104,2.112,2.1145,2.1116,2.1288,2.1291,2.1293,2.1285,2.1288,2.1291,0,0,0,0,0,2.0642,2.0687,2.0696,2.0714,2.0815,2.0884,2.0897,2.0932,2.0924,2.0949,2.0987,2.0999,2.1132,2.1111,2.1128,2.1156,2.1287,2.129,2.1293,2.1284,2.1288,2.1291,0,0,0,0,0,0,2.0622,2.0697,2.0707,2.0775,2.0823,2.0889,2.092,2.0934,2.0986,2.0985,2.1025,2.104,2.1104,2.1137,2.1112,2.1219,2.1209,2.1216,2.1196,2.12,2.1203,2.1195,2.1121,0,0,0,0,0,2.0625,2.0674,2.0737,2.0791,2.0815,2.0863,2.0895,2.0917,2.0968,2.0989,2.1032,2.1082,2.1135,2.1169,2.1221,2.1289,2.1305,2.1317,2.132,2.1322,2.1328,2.1368,2.1374,2.1305,2.1305,2.1305,0,0,2.0633,2.068,2.0709,2.0788,2.0828,2.0879,2.088,2.0934,2.0972,2.0997,2.1063,2.1096,2.1154,2.1222,2.1254,2.1251,2.135,2.1326,2.1327,2.1332,2.1372,2.1378,2.1384,2.1308,2.1307,2.1307,0,0,2.0673,2.0713,2.0763,2.0803,2.0863,2.0895,2.0907,2.0971,2.0995,2.1061,2.1082,2.1128,2.1218,2.1259,2.1291,2.1347,2.1361,2.1363,2.1379,2.1418,2.1423,2.1428,2.145,2.1457,2.1368,2.1368,2.1368,0,2.0675,2.0753,2.0787,2.084,2.0876,2.09,2.0952,2.0989,2.1063,2.1087,2.1082,2.1196,2.1237,2.1315,2.1329,2.1354,2.137,2.1356,2.1419,2.1425,2.143,2.1451,2.1459,2.1368,2.1368,2.1368,2.1368,0,2.0753,2.0806,2.084,2.0911,2.095,2.1001,2.1045,2.108,2.1098,2.1131,2.1199,2.1249,2.1312,2.1331,2.135,2.1413,2.141,2.1411,2.1403,2.1436,2.1457,2.1465,2.1368,2.1368,2.1368,2.1368,0,0,2.0785,2.0875,2.0887,2.092,2.0988,2.1031,2.1084,2.1145,2.1176,2.1225,2.1272,2.1348,2.135,2.1387,2.141,2.1444,2.1487,2.1442,2.1444,2.145,2.1562,2.1561,2.157,2.1495,2.1497,2.1498,2.1557,0,2.0836,2.0932,2.0965,2.1045,2.1096,2.1119,2.1166,2.1213,2.1245,2.1292,2.1327,2.1381,2.1379,2.1402,2.1436,2.1475,2.151,2.147,2.1541,2.1543,2.1528,2.1581,2.1581,2.1634,2.1566,2.1567,2.1568,0,2.0908,2.096,2.1045,2.1108,2.113,2.1171,2.1231,2.1276,2.133,2.1351,2.1392,2.1413,2.147,2.1456,2.1536,2.1509,2.1539,2.1562,2.1565,2.1575,2.1559,2.1594,2.1652,2.166,2.1581,2.158,2.1579,0,2.0926,2.1016,2.1079,2.1106,2.1181,2.121,2.1242,2.1295,2.133,2.1382,2.1406,2.1463,2.1495,2.154,2.1576,2.1562,2.1653,2.1642,2.1674,2.1673,2.1694,2.1692,2.1759,2.1709,2.1709,2.1709,2.1709,0,2.098,2.1031,2.1088,2.1127,2.1186,2.1223,2.128,2.1314,2.1361,2.1408,2.1431,2.1474,2.1518,2.1567,2.1595,2.1658,2.1672,2.1691,2.1699,2.1691,2.1688,2.1713,2.1711,2.1711,2.171,2.171,2.171,0,2.101,2.105,2.1121,2.1185,2.1203,2.1244,2.1299,2.1338,2.137,2.1429,2.1445,2.1496,2.1555,2.1595,2.167,2.1689,2.1758,2.1764,2.174,2.1744,2.1774,2.1771,2.1861,2.1875,2.1813,2.1814,2.1814,0,2.1043,2.1084,2.1153,2.1186,2.1218,2.1271,2.1307,2.1345,2.1382,2.1447,2.1478,2.1539,2.1589,2.1682,2.1726,2.1784,2.1793,2.182,2.1802,2.1793,2.1796,2.1794,2.1799,2.1823,2.1824,2.1824,2.1825,0,2.1099,2.1116,2.1168,2.1227,2.1269,2.1317,2.1366,2.1391,2.1437,2.1478,2.1539,2.1578,2.1655,2.1715,2.1777,2.1811,2.1826,2.183,2.184,2.1834,2.1819,2.183,2.175,2.1828,2.1828,2.1827,2.1827,2.1827,2.1133,2.1171,2.1226,2.1283,2.1323,2.1367,2.1408,2.1445,2.1496,2.1563,2.1581,2.1645,2.1699,2.1784,2.1818,2.1869,2.1866,2.1881,2.1886,2.1889,2.189,2.1809,2.188,2.188,2.188,2.188,2.188,0,2.1191,2.1228,2.128,2.1347,2.1392,2.1401,2.1455,2.1492,2.1548,2.1597,2.1646,2.1716,2.1775,2.1823,2.1884,2.1915,2.1924,2.193,2.1929,2.1937,2.1888,2.1874,2.1922,2.1922,2.1922,2.1922,2.1922,2.1922,2.1227,2.1292,2.1316,2.1402,2.1438,2.1501,2.1531,2.1572,2.1612,2.1689,2.1738,2.1769,2.1818,2.1882,2.1937,2.1949,2.1972,2.1977,2.1991,2.1945,2.194,2.1936,2.1923,2.1981,2.1981,2.2036,2.2037,2.2037]}]]